Tucson, AZ

4:52 PM MST on March 26, 2017 (GMT -0700)
Sin Vacas | | Change Station

Elev 2920 ft 32.34 °N, 110.93 °W | Updated 6 seconds ago

Clear
Clear
76.0 °F
Feels Like 76 °F
N
6.5
Wind Variable Wind from NNE
Gusts 6.5 mph

Today
High -- | Low -- °F
--% Chance of Precip.
Yesterday
High -- | Low -- °F
Precip. -- in
Pressure 29.86 in
Visibility 10.0 miles
Clouds Clear
Heat Index 76 °F
Dew Point 29 °F
Humidity 18%
Rainfall 0.00 in
Snow Depth Not available.
6:19 AM 6:39 PM
Waning Crescent, 2% visible
METAR KDMA 262258Z AUTO 00000KT 10SM CLR 24/M06 A2994 RMK AO2 SLP112 T02421056 $
Pressure 29.86 in
Visibility 10.0 miles
Clouds Clear
Heat Index 76 °F
Dew Point 29 °F
Humidity 18%
Rainfall 0.00 in
Snow Depth Not available.
6:19 AM 6:39 PM
Waning Crescent, 2% visible
METAR KDMA 262258Z AUTO 00000KT 10SM CLR 24/M06 A2994 RMK AO2 SLP112 T02421056 $

Get Severe Weather Alerts

Thanks for signing up!

Be on the lookout for a verification email in your inbox.

You'll start receiving the daily forecast at 8 AM.

×

10-Day Weather Forecast

Almanac

Astronomy

Mar. 26, 2017 Rise Set
Actual Time
Civil Twilight
Nautical Twilight
Astronomical Twilight
Moon
Length of Visible Light
Length of Day
Tomorrow will be .
, % of the Moon is Illuminated

Today's Extremes

State Highs State Lows

Community

WunderPhotos

Upload Photos

1,962,540 photos uploaded!

WunderBlog® & News

Nearby

Air Quality

  Air Quality AQ Index Pollutant
Not available.

Snow Depth

Station Depth Elevation

Earthquake Activity

City Distance Mag. Time & Date
Minimum magnitude displayed is 2.5.

Earthquake Activity

City Distance Mag. Time & Date
Minimum magnitude displayed is 2.5.

Coastal Water Temperatures

Place Temperature

Stations

Nearby Weather Stations

Station Location Temp. Windchill Dew Point Humidity Wind Precip. Elev Updated Type
                   

Watches & Warnings

There are currently no watches in effect.